| time (UTC) | temp C | wind direction | speed KPH | gust KPH | rain 1hr cm | rain 24hr cm | rain mn cm | humidity % | barometer mb |
| 20260505041539 | 17 | 354 | 20.9 | 37.0 | 0.00 | 0.00 | 0.00 | 56 | 1002.2 |
| 20260505040859 | -17 | 355 | 22.5 | 12.9 | 0.00 | 0.00 | 0.00 | ||
| 20260505040108 | 17 | 355 | 17.7 | 35.4 | 0.00 | 0.00 | 0.00 | 60 | 1001.8 |
| 20260505035429 | -17 | 357 | 14.5 | 19.3 | 0.00 | 0.00 | 0.00 | ||
| 20260505034640 | 18 | 356 | 20.9 | 35.4 | 0.00 | 0.00 | 0.00 | 53 | 1002.5 |
| 20260505034000 | 17 | 354 | 19.3 | 35.4 | 0.00 | 0.00 | 0.00 | 55 | 1001.8 |
| 20260505033213 | 17 | 350 | 16.1 | 29.0 | 0.00 | 0.00 | 0.00 | 55 | 1001.6 |
| 20260505032534 | 17 | 355 | 14.5 | 30.6 | 0.00 | 0.00 | 0.00 | 55 | 1001.7 |
| 20260505031852 | 17 | 358 | 12.9 | 24.1 | 0.00 | 0.00 | 0.00 | 57 | 1001.8 |
| 20260505031212 | 17 | 355 | 11.3 | 22.5 | 0.00 | 0.00 | 0.00 | 57 | 1001.9 |
| 20260505030533 | -17 | 355 | 9.7 | 9.7 | 0.00 | 0.00 | 0.00 | ||
| 20260505025637 | 17 | 356 | 16.1 | 27.4 | 0.00 | 0.00 | 0.00 | 54 | 1002.2 |
| 20260505024958 | -17 | 356 | 19.3 | 16.1 | 0.00 | 0.00 | 0.00 | ||
| 20260505024058 | -17 | 351 | 17.7 | 29.0 | 0.00 | 0.00 | 0.00 | ||
| 20260505023306 | 18 | 355 | 12.9 | 25.7 | 0.00 | 0.00 | 0.00 | 44 | 1002.3 |
| 20260505022626 | 19 | 356 | 17.7 | 27.4 | 0.00 | 0.00 | 0.00 | 43 | 1002.2 |
| 20260505021946 | 19 | 355 | 16.1 | 24.1 | 0.00 | 0.00 | 0.00 | 43 | 1002.5 |
| 20260505021307 | -17 | 356 | 16.1 | 12.9 | 0.00 | 0.00 | 0.00 | ||
| 20260505020404 | 20 | 354 | 17.7 | 43.5 | 0.00 | 0.00 | 0.00 | 40 | 1002.6 |
| 20260505015724 | 20 | 356 | 29.0 | 43.5 | 0.00 | 0.00 | 0.00 | 37 | 1002.6 |
| 20260505015045 | -17 | 354 | 24.1 | 30.6 | 0.00 | 0.00 | 0.00 | ||
| 20260505014254 | 18 | 356 | 8.0 | 14.5 | 0.00 | 0.00 | 0.00 | 36 | 1001.9 |
| 20260505013615 | -17 | 357 | 6.4 | 6.4 | 0.00 | 0.00 | 0.00 | ||
| 20260505012825 | -17 | 351 | 3.2 | 3.2 | 0.00 | 0.00 | 0.00 | ||
| 20260505012033 | 17 | 353 | 3.2 | 9.7 | 0.00 | 0.00 | 0.00 | 35 | 1001.9 |
| 20260505011358 | 17 | 358 | 0.0 | 8.0 | 0.00 | 0.00 | 0.00 | 35 | 1001.9 |
| 20260505010713 | -17 | 355 | 4.8 | 6.4 | 0.00 | 0.00 | 0.00 | ||
| 20260505005815 | 17 | 355 | 6.4 | 12.9 | 0.00 | 0.00 | 0.00 | 35 | 1002.1 |
| 20260505005135 | -17 | 353 | 0.0 | 8.0 | 0.00 | 0.00 | 0.00 | ||
| 20260505004124 | 17 | 356 | 1.6 | 6.4 | 0.00 | 0.00 | 0.00 | 35 | 1002.0 |
| 20260505003445 | 17 | 356 | 0.0 | 9.7 | 0.00 | 0.00 | 0.00 | 36 | 1002.0 |
| 20260505002805 | 17 | 355 | 3.2 | 9.7 | 0.00 | 0.00 | 0.00 | 36 | 1002.1 |
| 20260505002125 | 16 | 356 | 0.0 | 14.5 | 0.00 | 0.00 | 0.00 | 40 | 1002.0 |
| 20260505001446 | -17 | 358 | 9.7 | 6.4 | 0.00 | 0.00 | 0.00 | ||
| 20260505000549 | 15 | 356 | 8.0 | 16.1 | 0.00 | 0.00 | 0.00 | 44 | 1002.2 |
| 20260504235909 | 16 | 355 | 9.7 | 16.1 | 0.00 | 0.00 | 0.00 | 39 | 1002.2 |
| 20260504235229 | 16 | 356 | 9.7 | 17.7 | 0.00 | 0.00 | 0.00 | 40 | 1002.3 |
| 20260504234550 | 16 | 354 | 12.9 | 17.7 | 0.00 | 0.00 | 0.00 | 42 | 1002.4 |
| 20260504233909 | 15 | 355 | 8.0 | 16.1 | 0.00 | 0.00 | 0.00 | 46 | 1002.5 |
| 20260504233230 | 16 | 0 | 11.3 | 11.3 | 0.00 | 0.00 | 0.00 | 43 | 1002.4 |
| 20260504232439 | 17 | 354 | 12.9 | 17.7 | 0.00 | 0.00 | 0.00 | 38 | 1002.4 |
| 20260504231800 | 16 | 356 | 12.9 | 17.7 | 0.00 | 0.00 | 0.00 | 41 | 1002.4 |
| 20260504231119 | 16 | 355 | 12.9 | 19.3 | 0.00 | 0.00 | 0.00 | 40 | 1002.4 |
| 20260504230441 | 17 | 356 | 9.7 | 17.7 | 0.00 | 0.00 | 0.00 | 42 | 1002.5 |
| 20260504225800 | 17 | 357 | 11.3 | 17.7 | 0.00 | 0.00 | 0.00 | 43 | 1002.4 |
| 20260504225119 | 16 | 357 | 12.9 | 17.7 | 0.00 | 0.00 | 0.00 | 46 | 1002.5 |
| 20260504224439 | 16 | 355 | 11.3 | 17.7 | 0.00 | 0.00 | 0.00 | 44 | 1002.5 |
| 20260504223800 | 15 | 356 | 8.0 | 8.0 | 0.00 | 0.00 | 0.00 | 49 | 1002.6 |
| 20260504223010 | 16 | 356 | 6.4 | 17.7 | 0.00 | 0.00 | 0.00 | 48 | 1002.5 |
| 20260504222332 | 16 | 358 | 11.3 | 17.7 | 0.00 | 0.00 | 0.00 | 44 | 1002.3 |
| 20260504221652 | 16 | 356 | 12.9 | 17.7 | 0.00 | 0.00 | 0.00 | 45 | 1002.3 |
| 20260504221012 | -17 | 353 | 12.9 | 12.9 | 0.00 | 0.00 | 0.00 | ||
| 20260504220223 | -17 | 354 | 6.4 | 9.7 | 0.00 | 0.00 | 0.00 | ||
| 20260504215432 | 16 | 356 | 11.3 | 16.1 | 0.00 | 0.00 | 0.00 | 44 | 1002.5 |
| 20260504214752 | -17 | 354 | 9.7 | 11.3 | 0.00 | 0.00 | 0.00 | ||
| 20260504214012 | 17 | 355 | 9.7 | 16.1 | 0.00 | 0.00 | 0.00 | 40 | 1002.4 |
| 20260504213322 | 17 | 355 | 11.3 | 16.1 | 0.00 | 0.00 | 0.00 | 40 | 1002.3 |
| 20260504212643 | -17 | 355 | 4.8 | 6.4 | 0.00 | 0.00 | 0.00 | ||
| 20260504211850 | 17 | 355 | 8.0 | 16.1 | 0.00 | 0.00 | 0.00 | 39 | 1002.4 |
| 20260504211210 | 18 | 357 | 4.8 | 8.0 | 0.00 | 0.00 | 0.00 | 37 | 1002.4 |
| 20260504210422 | 17 | 355 | 6.4 | 14.5 | 0.00 | 0.00 | 0.00 | 37 | 1002.4 |
| 20260504205742 | 17 | 356 | 0.0 | 9.7 | 0.00 | 0.00 | 0.00 | 38 | 1002.4 |
| 20260504205102 | 17 | 357 | 1.6 | 12.9 | 0.00 | 0.00 | 0.00 | 40 | 1002.4 |
| 20260504204422 | 17 | 353 | 6.4 | 12.9 | 0.00 | 0.00 | 0.00 | 39 | 1002.6 |
| 20260504203742 | 17 | 355 | 0.0 | 0.0 | 0.00 | 0.00 | 0.00 | 41 | 1002.7 |
| 20260504203101 | 17 | 355 | 0.0 | 3.2 | 0.00 | 0.00 | 0.00 | 41 | 1002.8 |
| 20260504202423 | -17 | 351 | 0.0 | 11.3 | 0.00 | 0.00 | 0.00 | ||
| 20260504201631 | 17 | 355 | 0.0 | 11.3 | 0.00 | 0.00 | 0.00 | 45 | 1002.9 |
| 20260504200951 | 17 | 356 | 1.6 | 16.1 | 0.00 | 0.00 | 0.00 | 45 | 1002.9 |
| 20260504200312 | 17 | 356 | 8.0 | 14.5 | 0.00 | 0.00 | 0.00 | 42 | 1003.1 |
| 20260504195631 | 17 | 356 | 8.0 | 14.5 | 0.00 | 0.00 | 0.00 | 40 | 1003.1 |
| 20260504194953 | 17 | 354 | 6.4 | 14.5 | 0.00 | 0.00 | 0.00 | 40 | 1003.2 |
| 20260504194313 | 17 | 355 | 1.6 | 11.3 | 0.00 | 0.00 | 0.00 | 42 | 1003.2 |
| 20260504193633 | 17 | 356 | 1.6 | 16.1 | 0.00 | 0.00 | 0.00 | 44 | 1003.4 |
| 20260504192953 | 17 | 356 | 8.0 | 16.1 | 0.00 | 0.00 | 0.00 | 42 | 1003.5 |
| 20260504192312 | 16 | 356 | 11.3 | 16.1 | 0.00 | 0.00 | 0.00 | 43 | 1003.5 |
| 20260504191633 | -17 | 0 | 6.4 | 6.4 | 0.00 | 0.00 | 0.00 | ||
| 20260504190843 | 16 | 357 | 3.2 | 9.7 | 0.00 | 0.00 | 0.00 | 46 | 1003.8 |
| 20260504190201 | 17 | 357 | 3.2 | 12.9 | 0.00 | 0.00 | 0.00 | 44 | 1003.9 |
| 20260504185524 | -17 | 357 | 8.0 | 12.9 | 0.00 | 0.00 | 0.00 | ||
| 20260504184730 | 15 | 356 | 6.4 | 12.9 | 0.00 | 0.00 | 0.00 | 51 | 1004.1 |
| 20260504184055 | 15 | 356 | 8.0 | 12.9 | 0.00 | 0.00 | 0.00 | 50 | 1004.1 |
| 20260504183411 | 15 | 356 | 4.8 | 3.2 | 0.00 | 0.00 | 0.00 | 49 | 1004.2 |
| 20260504182618 | 14 | 357 | 6.4 | 12.9 | 0.00 | 0.00 | 0.00 | 50 | 1004.4 |
| 20260504181938 | 14 | 356 | 6.4 | 12.9 | 0.00 | 0.00 | 0.00 | 51 | 1004.4 |
| 20260504181258 | 15 | 357 | 0.0 | 12.9 | 0.00 | 0.00 | 0.00 | 48 | 1004.4 |
| 20260504180619 | -17 | 355 | 11.3 | 6.4 | 0.00 | 0.00 | 0.00 | ||
| 20260504175642 | -17 | 351 | 0.0 | 0.0 | 0.00 | 0.00 | 0.00 | ||
| 20260504174850 | 14 | 357 | 0.0 | 0.0 | 0.00 | 0.00 | 0.00 | 55 | 1004.8 |
| 20260504174210 | 13 | 354 | 0.0 | 11.3 | 0.00 | 0.00 | 0.00 | 57 | 1004.9 |
| 20260504173530 | 13 | 356 | 0.0 | 12.9 | 0.00 | 0.00 | 0.00 | 56 | 1005.0 |
| 20260504172849 | 13 | 355 | 8.0 | 14.5 | 0.00 | 0.00 | 0.00 | 55 | 1004.9 |
| 20260504172210 | 14 | 356 | 9.7 | 14.5 | 0.00 | 0.00 | 0.00 | 52 | 1004.9 |
| 20260504171530 | 14 | 357 | 6.4 | 12.9 | 0.00 | 0.00 | 0.00 | 54 | 1004.9 |
| 20260504170850 | 14 | 355 | 8.0 | 12.9 | 0.00 | 0.00 | 0.00 | 54 | 1005.1 |
| 20260504170211 | 13 | 357 | 6.4 | 12.9 | 0.00 | 0.00 | 0.00 | 58 | 1005.1 |
| 20260504160140 | 13 | 355 | 11.3 | 19.3 | 0.00 | 0.00 | 0.00 | 52 | 1005.7 |
| 20260504151134 | -17 | 356 | 14.5 | 16.1 | 0.00 | 0.00 | 0.00 | ||
| 20260504150340 | 15 | 354 | 11.3 | 25.7 | 0.00 | 0.00 | 0.00 | 46 | 1006.1 |
| 20260504141114 | -17 | 355 | 14.5 | 12.9 | 0.00 | 0.00 | 0.00 | ||
| 20260504140325 | 15 | 356 | 14.5 | 25.7 | 0.00 | 0.00 | 0.00 | 43 | 1005.9 |
| 20260504130802 | 15 | 353 | 17.7 | 29.0 | 0.00 | 0.00 | 0.00 | 38 | 1006.1 |
| 20260504130127 | 15 | 357 | 16.1 | 29.0 | 0.00 | 0.00 | 0.00 | 38 | 1006.2 |
| 20260504100317 | 10 | 355 | 8.0 | 16.1 | 0.00 | 0.00 | 0.00 | 47 | 1005.9 |
| 20260504081422 | -17 | 358 | 16.1 | 16.1 | 0.00 | 0.00 | 0.00 | ||
| 20260504080630 | 11 | 355 | 19.3 | 9.7 | 0.00 | 0.00 | 0.00 | 42 | 1006.7 |
| 20260504070303 | -17 | 355 | 16.1 | 14.5 | 0.00 | 0.00 | 0.00 | ||
| 20260504050553 | -17 | 353 | 12.9 | 9.7 | 0.00 | 0.00 | 0.00 | ||
| 20260504045804 | 11 | 356 | 12.9 | 33.8 | 0.00 | 0.00 | 0.00 | 50 | 1008.8 |
| 20260504045124 | 12 | 357 | 17.7 | 33.8 | 0.00 | 0.00 | 0.00 | 39 | 1008.7 |
| 20260504044443 | 12 | 355 | 19.3 | 32.2 | 0.00 | 0.00 | 0.00 | 37 | 1008.6 |
| 20260504043804 | -17 | 356 | 14.5 | 30.6 | 0.00 | 0.00 | 0.00 | ||
| 20260504043011 | 12 | 354 | 17.7 | 30.6 | 0.00 | 0.00 | 0.00 | 37 | 1008.4 |
| 20260504042331 | 12 | 357 | 16.1 | 27.4 | 0.00 | 0.00 | 0.00 | 38 | 1008.3 |